Location: Newark
(33.6439°N, 114.9881°W)
Time: 16:29:29
(UTC+00:00)

Tiros 1 - Pass Details

Date: 23 July 2019
Orbit: 631 x 664 km, 48.4° (Epoch: 23 August)

Event Time Altitude Azimuth Distance (km) Brightness Sun altitude
Rises 19:52:54 0° 270° (W) 2,980 10.6 76.3°
Reaches altitude 10° 19:55:40 10° 285° (WNW) 2,074 9.9 76.2°
Maximum altitude 19:59:29 23° 338° (NNW) 1,403 9.1 76.1°
Drops below altitude 10° 20:03:18 10° 31° (NNE) 2,082 9.7 75.9°
Sets 20:06:06 0° 46° (NE) 2,996 10.4 75.7°
